When you browse on this site, cookies collect data to enhance your experience and personalize the content and advertising you see.
Visit our Privacy Policy to learn more. By continuing to use the site, you agree to this use of cookies and data.
  • En España
  • Lista de países
  • Para 7 días
  • Temperatura del agua
  • El tiempo en el mapa
  • Informadores
  • user-avatar
    Iniciar sesión

    Tiempo cada hora Cartagena

    Hoy, 24 Febrero, Lunes

    Tiempo Temperatura Precipitaciones Viento Presión Humedad
    00:00 +10°C° 0 mm 1 mps 772 mmHg 66%
    01:00 +10°C° 0 mm 1 mps 772 mmHg 67%
    02:00 +10°C° 0 mm 1 mps 771 mmHg 67%
    03:00 +9°C° 0 mm 1 mps 771 mmHg 67%
    04:00 +9°C° 0 mm 1 mps 770 mmHg 68%
    05:00 +8°C° 0 mm 0 mps 770 mmHg 68%
    06:00 +8°C° 0 mm 0 mps 770 mmHg 69%
    07:00 +11°C° 0 mm 0 mps 770 mmHg 57%
    08:00 +14°C° 0 mm 0 mps 770 mmHg 46%
    09:00 +17°C° 0 mm 0 mps 770 mmHg 34%
    10:00 +20°C° 0 mm 1 mps 770 mmHg 30%
    11:00 +22°C° 0 mm 1 mps 769 mmHg 27%
    12:00 +23°C° 0 mm 2 mps 769 mmHg 23%
    13:00 +23°C° 0 mm 2 mps 768 mmHg 24%
    14:00 +22°C° 0 mm 3 mps 768 mmHg 25%
    15:00 +24°C° 0 mm 3 mps 767 mmHg 26%
    16:00 +20°C° 0 mm 3 mps 767 mmHg 32%
    17:00 +18°C° 0 mm 3 mps 766 mmHg 39%
    18:00 +16°C° 0 mm 3 mps 766 mmHg 46%
    19:00 +14°C° 0 mm 3 mps 766 mmHg 47%
    20:00 +14°C° 0 mm 3 mps 766 mmHg 48%
    21:00 +13°C° 0 mm 3 mps 766 mmHg 49%
    22:00 +13°C° 0 mm 3 mps 766 mmHg 50%
    23:00 +13°C° 0 mm 3 mps 766 mmHg 52%

    Mañana, 25 Febrero, Martes

    Tiempo Temperatura Precipitaciones Viento Presión Humedad
    00:00 +12°C° 0 mm 3 mps 766 mmHg 53%
    01:00 +12°C° 0 mm 3 mps 765 mmHg 52%
    02:00 +12°C° 0 mm 3 mps 765 mmHg 52%
    03:00 +13°C° 0 mm 2 mps 764 mmHg 52%
    04:00 +12°C° 0 mm 2 mps 764 mmHg 54%
    05:00 +12°C° 0 mm 2 mps 764 mmHg 56%
    06:00 +12°C° 0 mm 2 mps 764 mmHg 59%
    07:00 +14°C° 0 mm 2 mps 764 mmHg 50%
    08:00 +17°C° 0 mm 2 mps 764 mmHg 42%
    09:00 +20°C° 0 mm 2 mps 764 mmHg 33%
    10:00 +21°C° 0 mm 2 mps 764 mmHg 30%
    11:00 +24°C° 0 mm 2 mps 764 mmHg 27%
    12:00 +25°C° 0 mm 2 mps 764 mmHg 23%
    13:00 +26°C° 0 mm 3 mps 763 mmHg 23%
    14:00 +26°C° 0 mm 3 mps 762 mmHg 22%
    15:00 +27°C° 0 mm 4 mps 762 mmHg 21%
    16:00 +25°C° 0 mm 4 mps 762 mmHg 27%
    17:00 +22°C° 0 mm 4 mps 762 mmHg 32%
    18:00 +20°C° 0 mm 3 mps 762 mmHg 37%
    19:00 +19°C° 0 mm 4 mps 762 mmHg 40%
    20:00 +19°C° 0 mm 4 mps 763 mmHg 42%
    21:00 +18°C° 0 mm 4 mps 763 mmHg 45%
    22:00 +17°C° 0 mm 4 mps 763 mmHg 47%
    23:00 +17°C° 0 mm 4 mps 763 mmHg 48%

    Pasado mañana, 26 Febrero, Miércoles

    Tiempo Temperatura Precipitaciones Viento Presión Humedad
    00:00 +15°C° 0 mm 4 mps 763 mmHg 49%
    01:00 +14°C° 0 mm 4 mps 763 mmHg 52%
    02:00 +13°C° 0 mm 3 mps 763 mmHg 55%
    03:00 +13°C° 0 mm 3 mps 763 mmHg 57%
    04:00 +13°C° 0 mm 2 mps 763 mmHg 59%
    05:00 +13°C° 0 mm 2 mps 763 mmHg 61%
    06:00 +12°C° 0 mm 2 mps 763 mmHg 62%
    07:00 +14°C° 0 mm 2 mps 763 mmHg 57%
    08:00 +16°C° 0 mm 3 mps 764 mmHg 52%
    09:00 +18°C° 0 mm 3 mps 764 mmHg 47%
    10:00 +19°C° 0 mm 3 mps 764 mmHg 44%
    11:00 +20°C° 0 mm 3 mps 764 mmHg 41%
    12:00 +21°C° 0 mm 3 mps 764 mmHg 38%
    13:00 +22°C° 0 mm 3 mps 764 mmHg 36%
    14:00 +22°C° 0 mm 3 mps 764 mmHg 35%
    15:00 +22°C° 0 mm 4 mps 763 mmHg 34%
    16:00 +20°C° 0 mm 3 mps 763 mmHg 46%
    17:00 +18°C° 0 mm 3 mps 763 mmHg 58%
    18:00 +14°C° 0 mm 3 mps 763 mmHg 70%
    19:00 +15°C° 0 mm 2 mps 764 mmHg 69%
    20:00 +14°C° 0 mm 2 mps 765 mmHg 69%
    21:00 +14°C° 0 mm 2 mps 765 mmHg 68%
    22:00 +14°C° 0 mm 2 mps 765 mmHg 59%
    23:00 +13°C° 0 mm 2 mps 765 mmHg 49%

    27 Febrero, Jueves

    Tiempo Temperatura Precipitaciones Viento Presión Humedad
    00:00 +12°C° 0 mm 3 mps 766 mmHg 40%
    01:00 +12°C° 0 mm 3 mps 765 mmHg 41%
    02:00 +12°C° 0 mm 3 mps 765 mmHg 42%
    03:00 +11°C° 0 mm 3 mps 765 mmHg 43%
    04:00 +11°C° 0 mm 3 mps 765 mmHg 48%
    05:00 +11°C° 0 mm 3 mps 765 mmHg 53%
    06:00 +10°C° 0 mm 3 mps 765 mmHg 58%
    07:00 +12°C° 0 mm 3 mps 766 mmHg 61%
    08:00 +13°C° 0 mm 3 mps 766 mmHg 64%
    09:00 +16°C° 0 mm 3 mps 766 mmHg 67%
    10:00 +17°C° 0 mm 2 mps 766 mmHg 58%
    11:00 +19°C° 0 mm 2 mps 766 mmHg 49%
    12:00 +20°C° 0 mm 2 mps 766 mmHg 40%
    13:00 +21°C° 0 mm 2 mps 766 mmHg 37%
    14:00 +21°C° 0 mm 2 mps 765 mmHg 35%
    15:00 +21°C° 0 mm 3 mps 765 mmHg 32%
    16:00 +19°C° 0 mm 3 mps 765 mmHg 39%
    17:00 +17°C° 0 mm 3 mps 765 mmHg 45%
    18:00 +14°C° 0 mm 3 mps 765 mmHg 52%
    19:00 +15°C° 0 mm 2 mps 765 mmHg 55%
    20:00 +14°C° 0 mm 2 mps 765 mmHg 58%
    21:00 +13°C° 0 mm 2 mps 766 mmHg 61%
    22:00 +13°C° 0 mm 1 mps 766 mmHg 61%
    23:00 +13°C° 0 mm 1 mps 765 mmHg 61%

    28 Febrero, Viernes

    Tiempo Temperatura Precipitaciones Viento Presión Humedad
    00:00 +12°C° 0 mm 1 mps 765 mmHg 61%
    01:00 +12°C° 0 mm 1 mps 765 mmHg 62%
    02:00 +11°C° 0 mm 1 mps 765 mmHg 64%
    03:00 +11°C° 0 mm 1 mps 764 mmHg 66%
    04:00 +11°C° 0 mm 1 mps 764 mmHg 68%
    05:00 +11°C° 0 mm 1 mps 764 mmHg 71%
    06:00 +10°C° 0 mm 1 mps 764 mmHg 73%
    07:00 +13°C° 0 mm 1 mps 764 mmHg 62%
    08:00 +15°C° 0 mm 0 mps 764 mmHg 52%
    09:00 +17°C° 0 mm 0 mps 764 mmHg 41%
    10:00 +21°C° 0 mm 1 mps 764 mmHg 38%
    11:00 +21°C° 0 mm 2 mps 763 mmHg 35%
    12:00 +23°C° 0 mm 2 mps 763 mmHg 33%
    13:00 +22°C° 0 mm 3 mps 763 mmHg 33%
    14:00 +22°C° 0 mm 3 mps 762 mmHg 34%
    15:00 +22°C° 0 mm 3 mps 761 mmHg 35%
    16:00 +20°C° 0 mm 3 mps 761 mmHg 43%
    17:00 +18°C° 0 mm 3 mps 761 mmHg 52%
    18:00 +16°C° 0 mm 3 mps 761 mmHg 60%
    19:00 +14°C° 0 mm 3 mps 761 mmHg 64%
    20:00 +13°C° 0 mm 3 mps 762 mmHg 67%
    21:00 +13°C° 0 mm 3 mps 762 mmHg 71%
    22:00 +13°C° 0 mm 3 mps 762 mmHg 72%
    23:00 +13°C° 0 mm 2 mps 762 mmHg 72%

    29 Febrero, Sábado

    Tiempo Temperatura Precipitaciones Viento Presión Humedad
    00:00 +13°C° 0 mm 2 mps 762 mmHg 73%
    01:00 +13°C° 0 mm 2 mps 762 mmHg 69%
    02:00 +13°C° 0 mm 1 mps 761 mmHg 65%
    03:00 +13°C° 0 mm 1 mps 761 mmHg 61%
    04:00 +13°C° 0 mm 1 mps 761 mmHg 62%
    05:00 +12°C° 0 mm 1 mps 761 mmHg 63%
    06:00 +12°C° 0 mm 1 mps 762 mmHg 65%
    07:00 +14°C° 0 mm 1 mps 762 mmHg 58%
    08:00 +16°C° 0 mm 1 mps 762 mmHg 51%
    09:00 +18°C° 0 mm 2 mps 763 mmHg 45%
    10:00 +20°C° 0 mm 2 mps 763 mmHg 40%
    11:00 +21°C° 0 mm 2 mps 763 mmHg 36%
    12:00 +24°C° 0 mm 2 mps 763 mmHg 31%
    13:00 +24°C° 0 mm 3 mps 762 mmHg 30%
    14:00 +25°C° 0 mm 3 mps 761 mmHg 29%
    15:00 +25°C° 0 mm 3 mps 760 mmHg 28%
    16:00 +22°C° 0 mm 4 mps 760 mmHg 37%
    17:00 +20°C° 0 mm 4 mps 760 mmHg 46%
    18:00 +16°C° 0 mm 5 mps 760 mmHg 55%
    19:00 +17°C° 0 mm 4 mps 761 mmHg 56%
    20:00 +16°C° 0 mm 3 mps 761 mmHg 58%
    21:00 +15°C° 0 mm 2 mps 762 mmHg 59%
    22:00 +15°C° 0 mm 2 mps 762 mmHg 59%
    23:00 +14°C° 0 mm 3 mps 761 mmHg 59%
    Mostrar más